sat.trackr.live / text

‹ back to catalog

KUIPER-00038

NORAD 63750 · 2025-088AC

PAYLOAD ACTIVE UNKNOWN

§ Identity

Operator
Country
US
Launch date
2025-04-28
Launch site
AFETR
Launch vehicle
Mass (kg)
RCS (m²)

External: N2YO · Heavens-Above · Gunter

§ Orbital elements

Epoch: 2026-05-25T02:26:11.821344Z

Period
97.30 min
Inclination
51.9021°
Eccentricity
0.0000652
Mean motion
14.79984553 rev/d
Perigee alt
628.9 km
Apogee alt
629.8 km
Semi-major
7,007.5 km
B*
2.7472e-4
RAAN
120.2105°
Arg perigee
47.6920°
Mean anomaly
312.4097°
Rev number
5,883

§ Raw data

KUIPER-000381 63750U 25088AC  26145.10152571  .00001876  00000+0  27472-3 0  99902 63750  51.9021 120.2105 0000652  47.6920 312.4097 14.79984553 58838

JSON: /api/v1/satellites/63750 · /tle

For live sub-satellite position, see the globe view (requires WebGL).

§ Visibility from observer

Set your observer location to see the next 7 days of passes ≥ 10°. The values pass through the URL so the page stays shareable.

No JS? Fill the form by hand. The geolocation button needs JavaScript.